Cloud_Cover
94 72 100 100 100 100 100 100 100 100 90 12 43 100 100 24 1 5 0 0 0 2 42 100 100 99 17 98 100 100 100 100 99 100 100 100 100 100 100 100 100 100 100 100 100 94 22
97 99 60 82 83 100 100 87 74 7 8 94 100 100 20 5 2 1 1 0 0 0 6 74 100 100 66 29 98 100 100 100 100 96 100 100 100 100 100 100 100 100 100 100 100 100 62
100 100 100 100 100 3 100 100 100 100 68 4 16 5 7 4 1 1 0 0 0 0 0 30 100 99 9 88 21 73 100 100 100 100 98 100 100 100 100 100 100 100 100 100 100 100 0
100 22 65 96 100 100 3 44 68 99 10 72 19 2 2 0 0 0 0 0 0 0 0 13 100 51 23 4 18 14 95 100 100 100 100 100 100 100 100 100 100 100 100 100 100 100 85
98 19 34 100 99 18 1 1 88 98 4 0 0 3 1 0 0 0 0 0 0 0 0 28 80 18 0 0 0 4 0 89 100 100 100 100 100 98 100 100 100 100 100 100 100 100 88
100 100 88 6 92 94 6 4 4 0 1 3 2 3 0 0 0 0 0 0 0 0 18 56 11 58 0 0 0 0 0 0 92 100 100 100 100 96 100 100 97 100 100 100 100 100 100
24 96 6 97 65 44 5 0 24 43 5 5 5 0 0 0 0 0 1 9 0 0 0 74 0 0 0 0 0 0 0 0 5 76 100 100 100 8 100 100 100 100 100 100 100 100 97
100 5 22 29 100 36 40 4 1 5 5 4 3 0 0 0 0 0 0 38 73 30 22 0 0 0 0 0 0 0 0 0 0 30 97 100 100 100 100 100 100 100 100 100 100 100 72
100 6 53 100 90 9 13 98 6 5 4 2 1 0 0 0 0 0 28 48 5 5 81 0 3 4 20 0 0 0 0 0 2 0 5 99 100 100 100 100 100 100 100 100 97 100 100
2 5 6 5 82 95 6 23 5 5 3 2 0 0 0 0 0 0 6 5 1 96 87 3 20 84 100 34 4 3 0 0 0 0 5 6 100 100 100 100 100 100 100 100 100 100 6
7 5 5 5 5 5 100 8 5 5 2 3 0 0 0 0 0 9 11 0 5 75 87 100 92 100 100 100 100 11 0 0 0 0 1 36 53 100 100 100 100 100 100 100 100 100 100
9 5 5 5 15 72 5 5 5 2 1 0 0 0 0 1 1 0 0 0 22 85 59 100 100 100 100 100 100 93 3 0 3 1 0 5 68 100 100 100 100 100 100 100 100 100 30
7 5 5 5 5 5 5 5 3 2 1 0 0 0 0 0 3 0 1 3 14 83 51 38 42 100 100 100 100 100 97 4 1 0 0 0 1 8 100 100 100 100 100 100 100 89 20
66 6 5 5 5 5 5 5 2 0 0 0 0 0 0 0 0 0 2 5 29 7 7 8 100 100 100 100 100 83 98 53 7 0 4 0 0 0 0 43 100 100 100 98 87 73 72
83 6 5 14 5 5 5 5 0 0 0 0 0 0 4 0 0 5 33 10 100 98 57 10 97 100 100 100 100 100 77 5 86 42 5 5 0 0 0 3 100 100 100 100 100 100 100
47 5 37 79 5 5 5 5 0 0 0 0 0 0 5 0 4 5 21 63 89 46 7 2 48 100 100 100 100 100 100 100 100 100 100 50 83 7 2 51 97 97 100 100 100 100 100
19 5 65 65 5 5 4 5 0 0 0 0 0 2 2 0 0 3 4 4 3 21 8 20 12 100 100 100 100 100 100 100 95 100 67 100 100 89 100 96 3 7 100 100 100 100 100
5 5 51 39 5 5 4 4 0 0 0 0 0 2 0 0 0 4 41 2 5 10 56 19 56 100 100 100 100 100 100 100 100 100 6 43 100 98 46 96 14 0 100 100 30 100 100
5 5 6 19 5 5 5 2 0 0 0 57 23 0 0 5 10 2 28 2 63 83 5 27 5 69 97 100 100 100 100 100 100 100 87 85 75 34 88 60 92 1 0 6 94 100 98
5 5 5 7 5 5 0 2 2 0 0 0 2 4 1 0 2 0 32 51 19 100 99 8 35 6 100 100 100 100 100 100 100 99 100 99 100 100 63 11 31 41 3 0 5 7 36
5 5 5 5 5 5 5 3 4 0 0 0 1 6 9 5 4 38 98 100 99 100 97 76 59 100 55 69 100 100 100 100 100 100 72 100 100 100 100 84 100 97 86 22 2 0 3
5 5 5 5 5 7 5 5 4 0 0 0 4 10 4 5 81 90 98 100 100 100 100 66 70 100 78 88 96 100 100 100 100 100 100 100 100 100 100 100 100 100 99 37 2 4 0
5 5 5 5 5 11 5 5 5 5 2 23 7 4 5 3 0 0 73 100 30 6 3 100 83 11 71 9 13 100 100 100 100 100 100 100 100 100 100 100 100 94 6 100 32 5 4
5 5 5 5 5 5 5 5 5 5 5 10 14 5 5 14 2 16 46 26 6 2 54 95 61 61 87 9 1 58 100 100 100 100 71 100 100 100 100 100 100 87 100 100 100 93 29
16 5 5 5 5 5 5 5 5 5 5 1 5 5 24 53 2 0 2 2 93 100 100 4 92 100 19 0 1 5 60 100 100 100 100 100 100 100 100 100 100 100 100 100 100 100 100
5 5 5 5 5 5 5 5 5 5 5 3 5 5 10 65 9 4 5 66 62 5 98 87 6 32 2 2 13 83 26 100 100 100 100 100 100 100 100 100 100 100 100 100 100 58 100
5 5 5 5 5 5 5 5 5 5 5 5 5 6 58 81 4 5 32 92 5 61 62 6 49 13 95 90 86 100 37 100 100 100 100 100 100 100 100 100 100 100 100 100 100 54 99
5 5 5 5 5 5 5 5 5 5 5 53 9 16 81 100 7 5 5 10 20 37 96 88 3 95 100 100 100 100 100 100 100 100 100 100 100 100 100 100 100 100 100 100 100 92 96
5 5 5 5 5 5 5 5 5 5 5 31 72 15 91 100 19 3 74 100 97 17 100 99 38 100 100 100 98 100 100 100 100 100 100 100 100 100 100 100 100 100 100 100 100 100 100